Date,TemperatureHighF,TemperatureAvgF,TemperatureLowF,DewpointHighF,DewpointAvgF,DewpointLowF,HumidityHigh,HumidityAvg,HumidityLow,PressureMaxIn,PressureMinIn,WindSpeedMaxMPH,WindSpeedAvgMPH,GustSpeedMaxMPH,PrecipitationSumIn
2013-1-1,33,26,26,30,9,-100,92,75,83,30.06,29.94,2,0,8,0.00
2013-1-2,27,19,13,21,5,-100,91,72,62,30.26,30.04,3,0,9,0.00
2013-1-3,33,21,5,22,9,-100,93,72,63,30.27,30.16,5,-43,16,0.00
2013-1-4,33,27,27,24,12,-100,81,69,65,30.25,30.14,5,2,20,0.00
2013-1-5,37,28,24,26,15,-100,91,72,61,30.40,30.16,4,1,13,0.00
2013-1-6,40,34,31,32,22,-100,86,70,64,30.18,30.00,5,1,13,0.00
2013-1-7,35,27,16,31,14,-100,92,75,70,30.44,30.18,2,0,8,0.01
2013-1-8,46,24,11,31,15,-100,94,80,52,30.41,30.30,5,-43,9,0.00
2013-1-9,45,32,17,42,23,-100,96,85,83,30.48,30.23,5,1,19,0.00
2013-1-10,43,33,25,33,22,-100,94,78,64,30.60,30.33,2,0,8,0.00
2013-1-11,48,38,34,45,26,-100,94,76,59,30.33,29.99,8,1,24,0.06
2013-1-12,60,38,34,54,30,-100,97,89,79,30.11,30.00,2,0,5,0.06
2013-1-13,68,50,37,58,38,-100,98,79,63,30.00,29.85,5,1,15,0.02
2013-1-14,57,38,33,56,25,-100,97,75,65,30.33,29.84,3,0,9,0.04
2013-1-15,35,27,28,28,9,-100,91,71,77,30.36,30.23,3,0,6,0.00
2013-1-17,36,34,32,30,29,28,89,83,75,30.15,30.07,2,0,14,0.00
2013-1-18,35,27,20,29,9,-100,87,58,35,30.49,30.12,5,2,17,0.00
2013-1-19,54,43,35,27,11,-100,61,30,24,30.29,29.83,8,3,18,0.00
2013-1-20,48,36,24,31,16,-100,78,51,36,30.10,29.75,7,3,20,0.00
2013-1-21,29,22,14,21,9,-100,86,68,57,30.09,29.89,5,1,11,0.01
2013-1-22,15,10,7,8,-4,-100,81,64,57,30.31,30.05,4,-42,15,0.01
2013-1-23,16,12,5,11,-1,-100,87,66,53,30.35,30.11,4,-11,14,0.00
2013-1-24,22,13,2,12,-2,-100,88,68,40,30.57,30.09,4,-7,13,0.00
2013-1-25,22,14,3,18,5,-100,88,79,71,30.56,30.06,2,-12,6,0.01
2013-1-26,30,22,13,25,11,-100,89,79,76,30.47,30.11,3,0,10,0.01
2013-1-27,34,22,7,25,12,-100,92,76,53,30.58,30.36,2,-16,4,0.00
2013-1-28,50,40,30,49,32,-100,96,86,78,30.37,30.02,5,2,19,0.00
2013-1-29,67,48,43,56,34,-100,98,78,65,30.04,29.79,6,1,15,0.00
2013-1-30,71,55,46,57,46,-100,96,80,58,29.79,29.19,8,2,26,0.00
2013-1-31,50,28,24,48,13,-100,92,69,61,29.84,29.16,8,4,22,0.07
2013-2-1,25,17,13,21,7,-100,92,73,63,30.36,29.81,5,2,19,0.05
2013-2-2,26,18,8,23,11,-100,92,78,66,30.36,30.00,5,-19,15,0.02
2013-2-3,31,24,19,24,16,-100,90,82,76,30.03,29.80,4,0,10,0.02
2013-2-4,32,23,18,30,14,-100,94,79,63,30.10,29.87,4,1,13,0.01
2013-2-5,35,30,29,33,24,-100,94,88,89,29.95,29.81,3,0,11,0.00
2013-2-6,33,26,12,28,16,-100,93,79,71,30.37,29.93,2,0,7,0.00
2013-2-7,41,21,10,30,-4,-100,91,62,63,30.35,30.04,7,-42,12,0.00
2013-2-8,42,31,27,37,19,-100,92,78,75,30.10,29.78,8,2,15,0.00
2013-2-9,32,22,13,23,7,-100,92,72,60,30.42,30.11,2,1,12,0.00
2013-2-10,50,28,8,28,17,5,92,67,29,30.41,30.04,5,-11,14,0.00
2013-2-11,63,46,37,49,31,-100,96,64,29,30.04,29.63,10,3,22,0.02
2013-2-12,43,33,25,30,16,-100,94,66,55,30.02,29.86,5,1,19,0.00
2013-2-13,40,30,21,33,27,19,96,89,66,29.93,29.68,5,0,11,0.23
2013-2-14,43,35,27,35,26,-100,94,77,61,29.97,29.85,6,1,13,0.23
2013-2-15,42,36,30,35,31,27,94,84,60,30.02,29.90,4,1,12,0.03
2013-2-16,30,25,16,28,15,-100,92,76,61,30.03,29.91,3,0,9,0.06
2013-2-17,23,19,16,19,14,7,92,81,64,30.29,29.91,5,1,14,0.03
2013-2-18,46,25,0,31,14,-4,89,66,35,30.37,29.95,5,-23,11,0.03
2013-2-19,47,38,26,39,30,17,94,74,44,29.96,29.62,6,3,23,0.03
2013-2-20,26,22,20,20,15,11,87,75,62,30.22,29.90,5,2,20,0.02
2013-2-21,26,21,14,19,15,11,90,78,69,30.38,30.19,2,1,9,0.02
2013-2-22,33,29,16,30,24,13,92,80,63,30.31,30.04,6,1,18,0.00
2013-2-23,49,36,30,42,33,27,94,87,73,30.04,29.83,3,0,8,0.00
2013-2-24,33,30,28,32,26,22,95,85,77,30.14,29.83,3,0,12,0.00
2013-2-25,44,33,26,27,24,22,91,73,45,30.23,30.06,5,1,12,0.00
2013-2-26,39,37,33,35,29,23,92,73,58,30.09,29.56,16,5,35,0.02
2013-2-27,42,36,34,39,26,-100,96,83,76,29.68,29.56,8,1,22,0.05
2013-2-28,35,31,33,34,22,-100,99,84,85,29.78,29.61,4,1,11,0.06
2013-3-1,33,30,28,31,22,-100,92,82,77,29.95,29.78,3,1,11,0.02
2013-3-2,28,26,25,24,22,20,88,83,76,29.95,29.89,2,0,7,0.03
2013-3-3,29,26,23,25,21,19,90,83,71,30.00,29.91,3,1,11,0.00
2013-3-4,36,26,21,24,20,18,92,79,57,30.13,30.00,4,1,11,0.00
2013-3-5,49,32,14,29,18,10,93,63,21,30.11,29.69,10,2,23,0.00
2013-3-6,40,34,31,35,31,29,95,88,67,30.09,29.67,5,1,12,0.06
2013-3-7,35,33,32,32,31,30,95,93,86,30.20,30.09,1,0,6,0.01
2013-3-16,28,25,17,21,16,9,85,69,52,29.94,29.84,8,1,16,0.00
2013-3-17,28,27,26,22,21,20,81,76,73,29.97,29.94,6,1,15,0.00
2013-3-22,35,29,22,23,21,20,91,72,59,30.04,29.96,3,1,10,0.00
2013-3-23,46,30,17,28,22,15,93,74,43,30.05,29.98,4,1,13,0.00
2013-3-24,40,31,21,29,24,19,93,76,53,30.02,29.52,10,2,23,0.00
2013-3-25,37,34,31,33,31,27,95,89,77,29.71,29.46,8,1,24,0.01
2013-3-26,41,34,31,33,31,29,95,90,69,29.94,29.71,2,0,7,0.00
2013-4-1,44,37,32,33,23,17,86,57,39,30.00,29.89,21,1,21,0.00
2013-4-2,40,32,27,24,20,14,81,61,37,30.19,29.99,21,1,21,0.00
2013-4-3,41,31,22,23,19,10,91,64,33,30.42,30.18,21,1,21,0.00
2013-4-4,52,34,15,30,17,5,92,56,20,30.41,29.98,19,1,19,0.00
2013-4-5,56,41,27,34,27,20,93,60,32,30.15,29.92,21,1,21,0.00
2013-4-6,58,42,22,26,19,8,93,50,18,30.28,30.06,20,2,20,0.00
2013-4-7,72,60,49,51,38,20,83,45,31,30.06,29.84,22,3,22,0.00
2013-4-8,75,59,42,53,46,40,97,67,34,30.02,29.87,19,1,19,0.00
2013-4-9,80,65,53,57,52,47,87,67,40,30.05,29.86,15,1,15,0.00
2013-4-10,81,70,56,62,56,51,95,62,42,29.94,29.73,30,2,30,0.00
2013-4-11,77,63,49,61,56,48,98,81,53,29.83,29.56,26,1,26,0.00
2013-4-12,69,59,46,59,51,36,94,74,49,29.79,29.47,23,3,23,0.00
2013-4-13,58,46,37,38,35,32,90,65,43,29.98,29.78,19,2,19,0.00
2013-4-14,63,48,32,44,35,28,93,62,34,30.15,29.98,10,1,10,0.00
2013-4-15,65,60,53,51,46,39,76,59,47,30.10,29.98,29,4,29,0.00
2013-4-16,80,66,56,60,55,49,95,70,45,30.17,29.98,23,2,23,0.00
2013-4-17,67,59,55,58,56,54,98,91,73,30.19,30.08,14,0,14,0.00
2013-4-18,83,70,58,64,59,54,89,69,47,30.09,29.76,28,5,28,0.00
2013-4-19,76,61,44,60,52,34,90,73,54,29.80,29.43,30,3,30,0.00
2013-4-20,44,44,43,35,34,32,70,68,64,29.84,29.79,10,2,10,0.00
2013-4-21,55,50,44,28,24,18,49,36,24,30.49,30.45,11,4,18,0.00
2013-4-22,60,50,42,33,27,21,64,43,23,30.46,30.27,16,5,29,0.00
2013-4-23,71,50,34,42,35,31,92,62,26,30.27,29.97,23,1,23,0.00
2013-4-24,75,55,40,58,46,35,93,75,46,30.11,29.67,22,2,22,0.00
2013-4-25,58,46,35,39,33,27,90,63,32,30.35,30.11,18,1,18,0.00
2013-4-26,60,47,34,40,34,25,94,65,29,30.45,30.34,11,1,11,0.00
2013-4-27,72,54,30,43,35,28,95,56,26,30.40,30.16,20,2,20,0.00
2013-4-28,60,53,42,51,46,40,92,80,48,30.17,29.95,28,3,28,0.00
2013-4-29,65,58,52,54,51,47,95,80,65,30.00,29.93,23,3,23,0.00
2013-4-30,69,59,53,54,52,49,92,77,57,30.16,30.00,21,3,21,0.00
2013-5-1,74,62,49,51,43,31,88,56,27,30.29,30.16,20,3,20,0.00
2013-5-2,75,60,45,44,38,30,87,50,22,30.33,30.17,29,3,29,0.00
2013-5-3,71,58,42,48,42,27,93,61,25,30.25,30.16,29,3,29,0.00
2013-5-4,70,57,46,46,42,38,86,62,37,30.20,30.07,24,3,24,0.00
2013-5-5,72,57,41,44,35,20,94,52,15,30.13,30.01,29,4,29,0.00
2013-5-6,65,56,46,54,48,39,91,73,62,30.07,30.00,22,3,22,0.00
2013-5-7,66,60,56,58,55,53,93,84,67,30.00,29.91,25,3,25,0.00
2013-5-8,72,60,48,56,51,46,96,77,44,29.95,29.84,19,1,19,0.00
2013-5-9,67,55,50,58,53,49,98,93,72,29.95,29.86,10,0,10,0.00
2013-5-12,53,48,42,37,33,28,79,55,42,30.02,29.89,24,2,24,0.00
2013-5-13,52,42,31,36,30,25,94,64,37,30.17,30.01,16,1,16,0.39
2013-5-14,61,46,27,46,34,25,95,68,39,30.20,29.93,13,1,13,0.01
2013-5-15,86,67,46,63,55,38,96,68,44,29.93,29.67,23,2,23,0.01
2013-5-16,76,68,57,63,60,55,95,76,50,29.92,29.72,15,1,15,0.00
2013-5-17,80,65,54,62,56,49,99,77,36,30.06,29.92,9,0,9,0.00
2013-5-18,80,65,50,64,57,49,98,78,50,30.10,30.01,22,2,22,0.00
2013-5-19,73,66,58,63,60,56,92,81,69,30.08,29.97,22,3,22,0.00
2013-5-20,84,71,58,69,63,57,97,78,51,30.01,29.86,12,1,12,0.00
2013-5-21,86,73,59,70,65,58,98,79,49,29.93,29.77,14,1,14,0.00
2013-5-22,86,71,62,67,63,60,97,78,45,29.85,29.72,28,1,28,0.00
2013-5-23,77,66,60,65,61,58,96,86,55,29.82,29.71,17,1,17,0.00
2013-5-24,60,46,41,59,41,34,95,84,65,30.25,29.77,18,1,18,0.00
2013-5-25,61,47,38,41,37,33,92,69,38,30.29,30.18,17,1,17,0.00
2013-5-26,66,49,32,46,38,30,100,70,36,30.28,30.18,16,1,16,0.00
2013-5-27,64,51,33,51,43,32,97,77,48,30.27,30.12,9,0,9,0.00
2013-5-28,77,62,52,69,59,49,99,89,62,30.12,29.96,23,0,23,0.00
2013-5-29,84,71,57,67,62,56,98,75,48,30.06,29.99,19,2,19,0.00
2013-5-30,87,71,54,71,62,53,98,79,44,30.15,30.05,16,0,16,0.00
2013-5-31,87,72,55,70,63,54,98,77,45,30.10,29.94,10,0,10,0.00
2013-6-1,87,74,61,70,65,60,97,78,49,29.99,29.80,18,1,18,0.00
2013-6-2,79,71,62,68,64,60,97,80,56,29.82,29.75,15,1,15,0.00
2013-6-3,66,61,49,62,58,47,98,90,73,30.02,29.81,9,0,9,0.00
2013-6-4,70,55,38,55,46,36,97,76,46,30.15,30.02,12,0,12,0.00
2013-6-5,79,63,42,63,53,41,97,74,52,30.13,29.91,21,2,21,0.00
2013-6-6,69,65,61,61,60,59,97,85,71,29.92,29.74,29,3,29,0.01
2013-6-7,67,64,60,65,62,59,98,96,93,29.78,29.68,6,0,6,0.00
2013-6-8,70,60,54,62,57,53,97,88,66,30.09,29.78,5,0,8,0.00
2013-6-9,81,67,53,67,60,52,98,80,56,30.15,29.99,20,2,20,0.00
2013-6-10,79,69,60,70,65,59,97,86,71,30.00,29.72,17,2,17,0.00
2013-6-11,76,68,63,68,64,61,96,88,70,29.85,29.74,12,1,12,0.00
2013-6-12,82,71,62,71,66,61,99,86,60,29.87,29.71,11,0,11,0.00
2013-6-13,74,67,61,68,63,56,98,89,77,29.72,29.47,25,1,25,0.00
2013-6-14,73,64,56,62,57,54,95,80,59,30.01,29.72,12,0,12,0.00
2013-6-15,76,63,48,60,54,48,98,76,39,30.10,29.98,13,1,13,0.00
2013-6-16,74,66,59,68,62,56,97,89,77,30.01,29.87,14,1,14,0.00
2013-6-17,80,71,62,69,65,61,96,83,54,29.93,29.84,11,0,11,0.00
2013-6-18,76,66,59,70,63,58,98,91,75,29.89,29.78,9,0,9,0.00
2013-6-19,76,66,54,62,56,50,97,75,42,30.11,29.89,13,1,13,0.00
2013-6-20,82,65,48,65,56,47,100,78,45,30.19,30.11,9,0,9,0.00
2013-6-21,84,68,50,68,59,50,98,76,44,30.23,30.12,10,0,10,0.00
2013-6-22,86,72,57,73,65,56,97,81,51,30.16,30.02,10,0,10,0.00
2013-6-23,87,73,59,72,66,58,98,81,50,30.13,30.00,9,0,9,0.00
2013-6-24,86,73,60,73,66,59,98,81,52,30.10,29.96,16,1,16,0.00
2013-6-25,87,74,63,71,66,62,98,80,55,30.04,29.83,25,1,25,0.00
2013-6-26,79,71,63,72,67,62,98,89,74,29.97,29.79,12,1,12,0.00
2013-6-27,75,68,63,71,66,62,99,94,85,29.79,29.60,12,0,12,0.00
2013-6-28,76,67,59,71,64,58,97,91,75,29.61,29.47,14,0,14,0.00
2013-6-29,77,66,59,68,62,58,98,88,65,29.58,29.51,11,1,11,0.00
2013-7-4,80,80,80,68,68,68,67,67,67,30.04,30.04,0,0,1,0.00
2013-7-5,80,80,80,68,68,68,67,67,67,30.04,30.04,0,0,1,0.00
2013-7-6,80,80,80,68,68,68,67,67,67,30.04,30.04,0,0,1,0.00
2013-7-7,80,80,80,68,68,68,67,67,67,30.04,30.04,0,0,1,0.00
2013-7-8,82,77,68,71,68,67,98,75,63,30.06,30.01,3,0,9,0.00
2013-7-9,80,73,67,74,70,67,98,92,79,30.07,29.94,7,1,15,0.00
2013-7-10,86,72,65,76,69,64,98,91,69,30.00,29.78,20,1,20,0.00
2013-7-11,78,68,60,68,64,59,98,89,58,29.96,29.83,10,0,10,0.00
2013-7-12,73,65,57,68,62,57,98,91,76,30.08,29.94,6,0,6,0.00
2013-7-13,82,71,61,71,66,60,98,86,62,30.20,30.06,11,0,11,0.00
2013-7-14,88,78,67,73,69,66,98,75,54,30.27,30.18,16,1,16,0.00
2013-7-15,88,75,62,76,68,61,99,83,54,30.30,30.20,6,0,6,0.00
2013-7-16,90,76,67,76,71,66,98,84,57,30.27,30.18,16,0,16,0.00
2013-7-17,89,78,69,77,72,68,97,86,62,30.25,30.11,8,0,8,0.00
2013-7-18,90,78,66,78,72,66,98,84,58,30.14,29.98,9,0,9,0.00
2013-7-19,88,77,69,78,72,68,99,87,64,30.00,29.84,13,1,13,0.00
2013-7-20,79,73,67,74,70,66,96,89,78,29.89,29.80,14,0,14,0.00
2013-7-21,84,72,65,73,68,64,98,88,61,29.94,29.86,6,0,6,0.00
2013-7-22,80,70,64,74,69,63,99,94,77,29.91,29.73,11,0,11,0.00
2013-7-23,81,70,62,72,67,61,98,90,68,29.74,29.66,9,0,9,0.00
2013-7-24,72,64,53,64,59,52,98,84,59,29.97,29.71,8,0,8,0.00
2013-7-25,75,61,48,60,54,48,98,81,49,30.08,29.96,11,0,11,0.00
2013-7-26,80,64,47,65,56,47,98,80,47,30.10,29.98,8,0,8,0.00
2013-7-27,74,64,54,70,62,53,100,93,85,30.00,29.83,14,0,14,0.04
2013-7-28,77,67,56,65,61,54,97,81,51,30.01,29.83,13,1,13,0.00
2013-7-29,73,61,48,62,55,48,98,83,53,30.18,30.01,11,0,11,0.00
2013-7-30,76,63,50,63,57,49,98,83,56,30.22,30.14,8,0,8,0.00
2013-7-31,80,64,52,69,61,51,98,88,53,30.16,29.94,5,0,5,0.01
2013-8-1,80,69,62,69,65,61,98,89,57,29.94,29.82,8,0,8,0.01
2013-8-2,77,66,55,65,60,55,99,82,54,29.96,29.87,16,0,16,0.00
2013-8-3,72,66,58,66,63,57,97,90,75,29.96,29.90,12,0,12,0.05
2013-8-4,74,61,50,62,56,49,98,85,55,30.07,29.96,12,0,12,0.00
2013-8-5,75,60,47,61,54,46,98,82,47,30.12,30.01,7,0,7,0.00
2013-8-6,82,66,51,65,58,50,98,77,48,30.02,29.95,16,1,16,0.00
2013-8-7,84,72,62,74,66,60,97,85,61,29.99,29.86,15,1,15,0.02
2013-8-8,84,72,62,75,68,61,99,88,66,29.95,29.87,12,0,12,0.01
2013-8-9,79,72,66,74,70,64,98,96,83,29.97,29.85,13,0,13,0.00
2013-8-10,80,69,61,71,64,60,98,86,59,30.07,29.97,9,0,9,0.00
2013-8-11,82,70,58,71,65,58,99,87,60,30.09,29.97,8,0,8,0.00
2013-8-12,81,71,66,70,66,63,99,86,59,30.02,29.86,9,0,9,0.00
2013-8-13,76,68,56,69,64,52,98,88,67,29.93,29.75,12,0,12,0.00
2013-8-14,68,56,47,58,52,45,97,86,66,30.14,29.93,12,0,12,0.00
2013-8-15,73,57,43,60,50,42,98,81,47,30.20,30.09,7,0,7,0.00
2013-8-16,78,61,46,64,55,45,98,83,52,30.16,30.10,7,0,7,0.00
2013-8-17,75,63,52,63,56,51,98,82,46,30.23,30.16,16,1,16,0.00
2013-8-18,73,66,60,66,61,57,97,83,69,30.21,30.10,12,0,12,0.00
2013-8-19,77,67,60,69,64,59,98,92,73,30.12,30.03,7,0,7,0.00
2013-8-20,80,66,53,69,60,52,99,86,52,30.18,30.08,4,0,4,0.00
2013-8-21,83,68,53,74,63,53,99,87,60,30.19,30.04,9,0,9,0.00
2013-8-22,81,69,64,72,66,62,98,91,70,30.08,29.95,19,0,19,0.00
2013-8-23,77,67,59,69,65,58,98,93,64,30.11,29.95,9,0,9,0.00
2013-8-24,79,65,55,68,60,54,99,86,49,30.29,30.11,6,0,6,0.00
2013-8-25,79,65,51,67,59,51,99,85,52,30.37,30.22,9,0,9,0.00
2013-8-26,82,68,55,70,62,54,99,84,60,30.25,29.99,12,0,12,0.00
2013-8-27,79,73,69,73,69,66,94,89,78,29.99,29.89,8,0,8,0.00
2013-8-28,74,71,69,73,70,68,98,97,94,29.92,29.75,17,0,17,0.00
2013-8-29,84,73,65,74,69,64,98,89,61,29.99,29.86,8,0,8,0.00
2013-8-30,84,71,61,73,67,60,100,88,60,30.00,29.81,9,0,9,0.00
2013-8-31,83,72,64,73,68,63,99,89,60,29.82,29.73,8,0,11,0.00
2013-9-1,80,71,64,73,68,63,99,91,72,29.82,29.74,10,0,10,0.00
2013-9-2,82,71,63,74,68,62,99,90,71,29.79,29.70,11,0,11,0.00
2013-9-3,73,66,60,68,61,56,99,86,59,30.00,29.78,13,0,13,0.00
2013-9-4,74,61,49,62,56,48,98,85,58,30.11,30.00,8,0,8,0.00
2013-9-5,73,61,49,62,56,48,98,86,54,30.18,30.05,13,0,13,0.00
2013-9-6,72,55,41,58,48,40,98,81,38,30.27,30.13,9,0,9,0.00
2013-9-7,76,59,42,62,52,41,98,82,38,30.14,29.94,6,0,6,0.00
2013-9-8,76,66,58,68,63,57,97,89,72,30.03,29.90,9,0,9,0.00
2013-9-9,78,66,54,70,62,54,98,88,68,30.09,30.00,13,0,13,0.00
2013-9-10,86,73,61,77,69,60,98,89,70,30.12,30.03,14,0,14,0.00
2013-9-11,86,74,66,78,71,66,99,92,71,30.12,29.97,8,0,8,0.00
2013-9-12,80,70,62,72,68,61,99,93,74,29.97,29.74,15,0,15,0.00
2013-9-13,67,58,47,61,55,45,100,90,68,30.00,29.76,18,0,18,0.00
2013-9-14,62,51,43,52,47,42,97,86,58,30.18,30.00,9,0,9,0.00
2013-9-15,71,54,40,61,50,39,98,87,58,30.21,30.07,11,0,11,0.00
2013-9-16,67,59,51,59,56,49,98,90,66,30.27,30.06,6,0,6,0.00
2013-9-17,68,54,44,53,47,41,98,82,37,30.39,30.26,14,1,14,0.00
2013-9-18,72,55,40,56,48,39,98,81,45,30.28,30.12,10,0,10,0.00
2013-9-19,73,60,52,64,58,51,98,92,69,30.15,30.03,6,0,6,0.00
2013-9-20,80,64,52,71,61,52,99,90,64,30.04,29.83,13,0,13,0.00
2013-9-21,73,62,57,68,61,56,98,95,83,29.83,29.60,29,0,29,0.50
2013-9-22,62,56,52,57,53,49,98,88,63,29.99,29.74,11,0,11,0.03
2013-9-23,57,50,39,50,45,37,97,83,64,30.13,29.99,7,0,7,0.00
2013-9-24,70,50,38,56,44,36,100,84,52,30.14,29.97,7,0,7,0.00
2013-9-25,74,54,40,59,48,39,97,82,47,30.00,29.88,10,0,10,0.00
2013-9-26,75,57,45,59,50,44,100,80,41,30.07,29.93,11,0,11,0.00
2013-9-27,74,55,40,61,50,39,97,84,49,30.19,30.07,7,0,7,0.00
2013-9-28,70,57,44,59,50,43,98,79,55,30.26,30.15,17,2,19,0.00
2013-9-29,74,60,47,61,52,45,96,77,52,30.15,29.99,19,1,19,0.00
2013-9-30,72,59,46,63,55,44,100,87,68,30.05,29.96,11,0,11,0.00
2013-10-1,75,62,52,65,57,51,98,86,64,30.06,29.97,12,0,12,0.00
2013-10-2,78,64,53,67,59,52,98,85,63,30.08,30.01,12,0,12,0.00
2013-10-3,80,66,54,70,61,52,98,87,63,30.09,29.99,8,0,8,0.00
2013-10-4,81,69,60,69,64,59,100,86,62,30.08,29.99,10,0,10,0.33
2013-10-5,83,70,60,70,65,59,98,86,59,30.06,29.95,9,0,9,0.00
2013-10-6,86,72,61,69,63,60,97,77,43,29.96,29.74,19,1,19,0.00
2013-10-7,72,58,43,62,51,40,94,79,58,30.10,29.64,18,1,18,0.17
2013-10-8,66,50,37,51,43,36,97,80,47,30.30,30.10,12,0,12,0.00
2013-10-9,68,51,38,50,43,36,97,77,35,30.32,30.22,16,1,16,0.00
2013-10-10,67,54,43,52,47,41,95,79,46,30.22,30.07,9,0,9,0.06
2013-10-11,60,55,52,58,54,50,97,95,93,30.07,30.02,7,0,7,0.02
2013-10-12,72,62,54,63,58,52,98,88,69,30.16,30.02,19,1,19,0.01
2013-10-13,68,61,57,60,57,54,95,87,72,30.23,30.12,14,1,14,0.01
2013-10-14,68,60,55,60,57,54,99,90,76,30.26,30.18,7,0,7,0.01
2013-10-15,72,60,48,59,54,46,100,82,61,30.19,29.96,14,0,14,0.00
2013-10-16,65,58,51,62,56,49,100,90,66,29.98,29.84,9,0,9,0.00
2013-10-17,64,57,50,61,55,47,95,92,85,29.88,29.60,16,0,16,0.03
2013-10-18,61,51,39,47,44,37,91,78,51,30.01,29.86,16,1,16,0.00
2013-10-19,58,44,34,49,41,32,97,88,67,29.98,29.76,14,0,14,0.00
2013-10-20,58,46,36,43,39,33,94,76,48,30.06,29.93,15,1,15,0.00
2013-10-21,67,46,31,46,37,29,100,75,34,30.09,29.87,13,0,13,0.00
2013-10-22,55,46,36,47,38,30,93,76,45,29.93,29.81,14,1,14,0.09
2013-10-23,42,39,35,40,37,33,94,92,89,29.92,29.73,9,0,9,0.06
2013-10-24,45,39,35,36,33,29,92,78,55,30.14,29.92,15,1,15,0.00
2013-10-25,45,37,30,36,32,28,99,83,67,30.34,30.14,14,0,14,0.00
2013-10-26,52,42,31,33,29,24,88,63,37,30.27,29.90,23,2,23,0.00
2013-10-27,52,42,30,38,32,27,94,70,46,30.12,29.96,12,0,12,0.00
2013-10-28,60,40,26,41,32,24,95,76,38,30.30,30.11,8,0,8,0.00
2013-10-29,60,43,30,43,36,28,95,77,42,30.39,30.27,8,0,8,0.00
2013-10-30,65,49,37,54,45,34,96,86,65,30.27,30.10,6,0,6,0.00
2013-10-31,69,59,50,61,55,48,98,87,66,30.11,29.49,22,1,22,0.19
2013-11-1,72,59,43,60,50,41,91,74,52,29.67,29.32,33,2,33,0.09
2013-11-2,55,47,41,47,43,39,96,86,63,29.92,29.62,18,0,18,0.05
2013-11-3,50,41,27,42,34,25,93,78,52,30.45,29.92,10,1,10,0.00
2013-11-4,47,35,22,33,24,20,100,69,39,30.57,30.45,14,1,14,0.00
2013-11-5,58,43,31,34,31,27,89,65,37,30.55,30.36,14,0,14,0.00
2013-11-6,73,54,30,51,42,28,95,68,43,30.37,29.90,19,1,19,0.00
2013-11-7,66,48,39,55,41,28,93,80,58,30.10,29.82,19,1,19,0.39
2013-11-8,43,37,26,32,29,23,89,72,52,30.30,30.06,15,1,15,0.00
2013-11-9,57,41,24,34,25,22,100,60,27,30.31,29.98,16,1,16,0.00
2013-11-10,53,45,38,37,32,29,73,60,40,30.25,29.95,25,2,25,0.00
2013-11-11,53,41,27,40,30,22,94,68,33,30.27,30.03,18,1,18,0.01
2013-11-12,42,31,25,40,27,21,93,85,66,30.46,30.03,13,0,13,0.17
2013-11-13,36,30,26,25,23,22,88,76,58,30.54,30.39,15,1,15,0.00
2013-11-14,50,36,28,28,23,17,86,62,30,30.40,30.19,15,1,15,0.00
2013-11-15,55,42,28,42,29,20,94,66,27,30.25,30.14,17,0,17,0.00
2013-11-16,63,50,35,49,44,33,95,79,57,30.25,30.05,19,1,19,0.00
2013-11-17,65,58,50,59,53,46,91,83,70,30.06,29.51,27,2,27,0.27
2013-11-18,56,50,39,50,36,28,89,61,40,30.00,29.62,20,2,20,0.01
2013-11-19,39,35,26,29,26,23,89,71,64,30.41,30.00,7,0,17,0.00
2013-11-20,48,33,20,28,15,-100,94,59,26,30.51,30.39,22,1,22,0.00
2013-11-21,58,43,28,41,33,22,89,68,46,30.47,30.25,19,1,19,0.00
2013-11-22,54,48,39,53,46,34,96,92,81,30.25,30.03,21,0,21,0.19
2013-11-23,39,32,20,34,24,8,89,73,54,30.32,30.09,20,2,20,0.01
2013-11-24,24,18,12,17,5,-100,83,68,58,30.54,30.31,16,-13,16,0.00
2013-11-25,42,25,11,26,9,-100,91,62,23,30.54,30.25,19,-10,19,0.00
2013-11-26,38,34,32,34,31,24,95,89,56,30.27,29.68,9,0,9,0.84
2013-11-27,35,30,23,34,27,18,96,90,78,30.11,29.66,19,1,19,0.03
2013-11-28,30,26,19,23,19,14,84,75,64,30.45,30.11,16,1,16,0.00
2013-11-29,36,28,19,25,21,17,99,76,57,30.68,30.44,7,0,7,0.00
2013-11-30,37,29,18,26,22,16,92,76,61,30.66,30.27,17,1,17,0.00
2013-12-1,50,35,20,35,28,18,94,78,49,30.28,29.98,15,0,15,0.00
2013-12-2,53,41,30,40,35,28,94,83,60,29.99,29.81,6,0,6,0.00
2013-12-3,55,40,33,44,36,31,96,87,62,29.93,29.83,4,0,4,0.00
2013-12-4,61,45,30,49,39,29,97,82,62,30.03,29.89,18,1,18,0.00
2013-12-5,68,57,46,60,53,44,95,86,69,29.96,29.83,17,1,17,0.52
2013-12-6,46,36,31,44,34,30,100,94,92,30.25,29.93,9,0,10,0.24
2013-12-7,32,28,21,30,25,17,95,88,78,30.59,30.23,7,0,7,0.17
2013-12-8,31,24,16,27,21,13,92,88,85,30.59,30.15,13,1,13,0.01
2013-12-9,40,35,31,39,32,27,96,89,81,30.16,30.01,19,1,19,0.00
2013-12-10,33,28,24,29,22,15,88,77,61,30.25,30.00,22,1,22,0.01
2013-12-11,31,25,21,23,17,14,88,72,55,30.37,30.25,16,1,16,0.01
2013-12-12,24,20,15,19,10,6,82,65,51,30.47,30.28,18,1,18,0.00
2013-12-13,36,26,21,22,16,9,90,65,51,30.30,30.22,17,1,17,0.00
2013-12-14,36,31,24,34,28,22,92,89,83,30.28,29.68,29,2,29,0.21
2013-12-15,39,31,25,38,28,18,95,86,72,30.00,29.62,23,2,23,0.06
2013-12-16,27,24,20,22,19,16,92,82,72,30.17,30.00,5,0,11,0.01
2013-12-17,38,31,25,34,28,22,100,88,77,30.07,29.94,10,0,10,0.00
2013-12-18,30,26,15,26,22,12,91,84,77,30.21,30.02,13,1,13,0.00
2013-12-19,54,39,16,38,28,13,93,68,45,30.13,30.04,21,1,21,0.00
2013-12-20,60,49,32,53,41,30,94,76,58,30.05,29.88,17,1,17,0.01
2013-12-21,64,59,52,60,55,51,97,87,76,29.89,29.65,17,1,17,0.27
2013-12-22,70,61,55,60,55,51,96,81,66,29.90,29.56,32,2,32,0.04
2013-12-23,56,41,32,51,38,26,94,89,77,30.25,29.88,13,0,13,0.00
2013-12-24,32,24,12,26,18,8,88,75,56,30.52,30.21,15,-10,15,0.00
2013-12-25,33,22,9,21,13,6,100,72,51,30.54,30.26,14,-10,14,0.00
2013-12-26,36,31,25,28,24,19,88,75,60,30.36,30.16,21,1,21,0.00
2013-12-27,42,30,18,28,22,16,98,74,44,30.38,30.29,16,1,16,0.00
2013-12-28,53,41,25,32,28,23,93,62,41,30.30,30.06,17,1,17,0.00
2013-12-29,43,39,35,42,37,31,96,92,84,30.07,29.61,18,0,18,0.21
2013-12-30,40,29,23,38,25,18,94,87,81,30.18,29.82,10,1,21,0.02
2013-12-31,28,25,21,24,21,16,90,83,75,30.33,30.08,21,1,21,0.00
2014-1-1,44,33,26,30,25,21,92,73,45,30.34,30.05,11,0,11,0.00
2014-1-2,34,28,15,31,25,12,100,90,83,30.05,29.64,10,0,10,0.00